Flag for U.S.A. Weather past 2 weeks in Aliso Viejo, California, U.S.A.

Now
72 °F

Clear.


Feels Like: 74 °F
Forecast: 67 / 86 °F
Wind: No wind

Location: John Wayne Airport-Orange County Airport

Current Time: Aug 31, 2014 at 3:22:00 AM

Latest Report: Aug 31, 2014 at 2:53 AM


Visibility: 10 mi

Pressure: 29.78 "Hg

Humidity: 71%

Dew point: 62 °F

Location of Aliso ViejoLocation

Historic Weather in Aliso Viejo — Graph

°F

Aliso Viejo temperature yesterday

Maximum temperature yesterday: 85 °F (at 2:53 PM)
Minimum temperature yesterday: 69 °F (at 7:53 AM)
Average temperature yesterday: 75 °F

Past Weeks' High & Low Weather Summary

 TemperatureHumidityPressure
High92 °F (Aug 27, 11:53 AM)81% (Aug 18, 3:53 AM)30.03 "Hg (Aug 18, 3:53 AM)
Low68 °F (Aug 23, 5:53 AM)23% (Aug 27, 4:53 PM)29.74 "Hg (Aug 30, 5:53 PM)
Average76 °F62%29.90 "Hg
* Reported Aug 16 1:53 AM — Aug 31 1:53 AM, Aliso Viejo, Weather by CustomWeather, © 2014

Note: Actual official high and low records may vary slightly from our data, if they occured in-between our weather recording intervals... More about our weather records

Advertising

Aliso Viejo weather history for previous 24 hours

 ConditionsComfort  
Time TempWeatherWind HumidityBarometerVisibility
1:53 AM
Aug 31
72 °FClear.3 mph81%29.78 "Hg10 mi
12:53 AM73 °FClear.5 mph81%29.77 "Hg10 mi
11:53 PM
Aug 30
74 °FClear.No wind76%29.77 "Hg10 mi
10:53 PM74 °FClear.5 mph76%29.77 "Hg10 mi
9:53 PM74 °FClear.6 mph79%29.77 "Hg10 mi
8:53 PM74 °FClear.7 mph79%29.76 "Hg10 mi
7:53 PM76 °FPassing clouds.6 mph69%29.74 "Hg10 mi
6:53 PM79 °FPassing clouds.7 mph65%29.74 "Hg10 mi
5:53 PM81 °FPassing clouds.7 mph54%29.74 "Hg10 mi
4:53 PM83 °FPassing clouds.8 mph50%29.74 "Hg10 mi
3:53 PM84 °FPassing clouds.9 mph48%29.75 "Hg10 mi
2:53 PM85 °FPassing clouds.7 mph46%29.76 "Hg10 mi
1:53 PM83 °FPassing clouds.8 mph51%29.79 "Hg10 mi
12:53 PM82 °FPassing clouds.9 mph53%29.81 "Hg10 mi
11:53 AM82 °FPassing clouds.9 mph53%29.82 "Hg10 mi
10:53 AM78 °FPassing clouds.5 mph60%29.83 "Hg10 mi
9:53 AM74 °FScattered clouds.3 mph67%29.84 "Hg10 mi
8:53 AM70 °FLow clouds.No wind76%29.84 "Hg8 mi
7:53 AM69 °FLow clouds.No wind79%29.83 "Hg8 mi
6:53 AM70 °FLow clouds.6 mph76%29.82 "Hg9 mi
5:53 AM70 °FLow clouds.3 mph76%29.81 "Hg10 mi
4:53 AM70 °FLow clouds.No wind79%29.81 "Hg10 mi
3:53 AM70 °FLow clouds.3 mph81%29.81 "Hg10 mi
Weather by CustomWeather, © 2014

See weather overviewHow to use our weather pages